This is the latest recevied weather packets stored in our database for station/object IW2NIA-3. If no packets are shown the sender has not sent any weather packets the latest 10 day(s).
| Time | Temp. | Humidity | Pressure | Rain* | Wind** | Luminosity | Snow |
|---|---|---|---|---|---|---|---|
| 1787920410 | 29.44° C | 61% | 1013.8 hPa | 0 mm | - | - | - |
| 1787919524 | 29.44° C | 64% | 1013.7 hPa | 0 mm | - | - | - |
| 1787918617 | 28.89° C | 66% | 1013.7 hPa | 0 mm | - | - | - |
| 1787917728 | 29.44° C | 69% | 1013.9 hPa | 0 mm | - | - | - |
| 1787916824 | 28.89° C | 70% | 1014.3 hPa | 0 mm | - | - | - |
| 1787915919 | 28.33° C | 73% | 1014.7 hPa | 0 mm | - | - | - |
| 1787915013 | 27.78° C | 73% | 1015.4 hPa | 0 mm | - | - | - |
| 1787914115 | 28.33° C | 73% | 1015.4 hPa | 0 mm | - | - | - |
| 1787913213 | 28.33° C | 73% | 1015.4 hPa | 0 mm | - | - | - |
| 1787912328 | 27.22° C | 77% | 1015 hPa | 0 mm | - | - | - |
| 1787911423 | 26.67° C | 77% | 1014.7 hPa | 0 mm | - | - | - |
| 1787910517 | 26.11° C | 81% | 1015.5 hPa | 0 mm | - | - | - |
| 1787909618 | 25.56° C | 84% | 1015.4 hPa | 0 mm | - | - | - |
| 1787908712 | 25° C | 88% | 1015.4 hPa | 0 mm | - | - | - |
| 1787907828 | 23.89° C | 90% | 1015.6 hPa | 0 mm | - | - | - |
| 1787906922 | 23.89° C | 92% | 1015.3 hPa | 0 mm | - | - | - |
| 1787906013 | 23.33° C | 93% | 1015.8 hPa | 0 mm | - | - | - |
| 1787905113 | 23.33° C | 94% | 1015.7 hPa | 0 mm | - | - | - |
| 1787904226 | 22.78° C | 94% | 1015.4 hPa | 0 mm | - | - | - |
| 1787903318 | 22.78° C | 94% | 1015.2 hPa | 0 mm | - | - | - |
| 1787902413 | 22.22° C | 94% | 1015.1 hPa | 0 mm | - | - | - |
| 1787901511 | 22.22° C | 94% | 1015.6 hPa | 0 mm | - | - | - |
| 1787900623 | 22.22° C | 94% | 1015.6 hPa | 0 mm | - | - | - |
| 1787899711 | 21.67° C | 94% | 1015.7 hPa | 0 mm | - | - | - |
| 1787898809 | 22.22° C | 94% | 1016.7 hPa | 0 mm | - | - | - |
* Rain latest hour (hover to see other rain measurements)
** Current wind speed in m/s (hover to see current wind gust speed)